GW5165 Weather Reports


time (UTC)temp
C
wind
direction
speed
KPH
gust
KPH
rain 1hr
cm
rain 24hr
cm
rain mn
cm
humidity
%
barometer
mb
20260502200214 16 234 3.2 3.2 0.00 0.00 0.00 29 1016.1
20260502195712 16 294 14.5 17.7 0.00 0.00 0.00 29 1016.4
20260502195208 16 301 8.0 11.3 0.00 0.00 0.00 29 1016.3
20260502194700 16 254 16.1 17.7 0.00 0.00 0.00 28 1016.4
20260502194156 16 311 1.6 3.2 0.00 0.00 0.00 28 1016.3
20260502193652 16 251 12.9 14.5 0.00 0.00 0.00 28 1016.6
20260502193149 16 306 12.9 14.5 0.00 0.00 0.00 29 1016.7
20260502192645 15 254 6.4 9.7 0.00 0.00 0.00 30 1016.8
20260502192142 15 263 9.7 14.5 0.00 0.00 0.00 29 1017.0
20260502191639 15 189 3.2 6.4 0.00 0.00 0.00 29 1017.1
20260502191136 15 294 8.0 11.3 0.00 0.00 0.00 29 1017.1
20260502190634 15 264 14.5 16.1 0.00 0.00 0.00 30 1017.2
20260502190132 15 285 9.7 12.9 0.00 0.00 0.00 29 1017.1
20260502185626 15 290 9.7 12.9 0.00 0.00 0.00 28 1017.4
20260502185123 15 287 4.8 9.7 0.00 0.00 0.00 29 1017.4
20260502184619 15 215 12.9 16.1 0.00 0.00 0.00 30 1017.7
20260502184115 15 244 11.3 16.1 0.00 0.00 0.00 30 1017.6
20260502183611 15 296 12.9 17.7 0.00 0.00 0.00 31 1017.7
20260502183108 15 283 6.4 6.4 0.00 0.00 0.00 29 1017.8
20260502182603 14 277 9.7 11.3 0.00 0.00 0.00 29 1017.9
20260502182059 15 288 8.0 11.3 0.00 0.00 0.00 30 1018.0
20260502181557 14 253 12.9 14.5 0.00 0.00 0.00 30 1017.8
20260502181055 13 261 14.5 17.7 0.00 0.00 0.00 32 1018.0
20260502180552 14 280 12.9 14.5 0.00 0.00 0.00 31 1018.4
20260502170505 13 261 12.9 14.5 0.00 0.00 0.00 29 1018.8
20260502163949 12 219 1.6 3.2 0.00 0.00 0.00 31 1019.3
20260502163444 12 258 14.5 17.7 0.00 0.00 0.00 32 1019.2
20260502162943 12 231 6.4 6.4 0.00 0.00 0.00 32 1019.4
20260502162440 12 258 8.0 11.3 0.00 0.00 0.00 31 1019.6
20260502161937 12 302 4.8 6.4 0.00 0.00 0.00 32 1019.4
20260502161432 12 243 9.7 12.9 0.00 0.00 0.00 32 1019.5
20260502160930 11 256 6.4 6.4 0.00 0.00 0.00 34 1019.6
20260502160428 11 280 8.0 11.3 0.00 0.00 0.00 34 1019.7
20260502151907 11 265 9.7 11.3 0.00 0.00 0.00 38 1019.9
20260502151402 11 275 11.3 12.9 0.00 0.00 0.00 38 1019.7
20260502150900 11 268 3.2 4.8 0.00 0.00 0.00 40 1019.9
20260502150356 11 302 3.2 4.8 0.00 0.00 0.00 41 1020.0
20260502130745 6 269 4.8 4.8 0.00 0.00 0.00 54 1020.2
20260502130242 6 229 3.2 4.8 0.00 0.00 0.00 55 1020.2
20260502123728 5 271 3.2 3.2 0.00 0.00 0.00 56 1020.2
20260502123225 5 216 1.6 3.2 0.00 0.00 0.00 57 1020.0
20260502122722 5 267 4.8 4.8 0.00 0.00 0.00 57 1020.0
20260502122218 4 211 3.2 3.2 0.00 0.00 0.00 57 1020.1
20260502121717 4 269 3.2 3.2 0.00 0.00 0.00 57 1020.0
20260502121214 4 266 4.8 4.8 0.00 0.00 0.00 58 1020.1
20260502120710 3 249 3.2 3.2 0.00 0.00 0.00 58 1019.9
20260502120207 3 230 1.6 1.6 0.00 0.00 0.00 59 1020.0
20260502115705 3 208 1.6 1.6 0.00 0.00 0.00 60 1019.9
20260502115201 3 252 3.2 3.2 0.00 0.00 0.00 61 1020.1
20260502114657 2 266 1.6 3.2 0.00 0.00 0.00 62 1020.1
20260502114154 2 256 3.2 3.2 0.00 0.00 0.00 64 1020.0
20260502113652 2 253 1.6 1.6 0.00 0.00 0.00 64 1019.9
20260502113150 2 254 1.6 1.6 0.00 0.00 0.00 64 1019.8
20260502112647 2 257 3.2 3.2 0.00 0.00 0.00 65 1019.7
20260502112144 2 264 0.0 1.6 0.00 0.00 0.00 65 1019.8
20260502111642 2 258 1.6 1.6 0.00 0.00 0.00 64 1019.7
20260502111139 2 277 1.6 1.6 0.00 0.00 0.00 65 1019.6
20260502110637 2 261 1.6 1.6 0.00 0.00 0.00 64 1019.7
20260502110134 2 276 1.6 1.6 0.00 0.00 0.00 65 1019.7
20260502105631 2 261 3.2 3.2 0.00 0.00 0.00 64 1019.7
20260502105128 2 256 1.6 1.6 0.00 0.00 0.00 64 1019.7
20260502104625 1 258 1.6 1.6 0.00 0.00 0.00 65 1019.7
20260502104123 1 270 1.6 1.6 0.00 0.00 0.00 66 1019.7
20260502103620 1 269 1.6 1.6 0.00 0.00 0.00 67 1019.8
20260502103119 1 254 0.0 1.6 0.00 0.00 0.00 67 1019.8
20260502102615 1 266 1.6 3.2 0.00 0.00 0.00 66 1019.7
20260502102112 2 256 1.6 3.2 0.00 0.00 0.00 65 1019.7
20260502101610 2 261 1.6 3.2 0.00 0.00 0.00 64 1019.8
20260502101108 2 181 0.0 1.6 0.00 0.00 0.00 62 1019.8
20260502100606 2 235 1.6 1.6 0.00 0.00 0.00 62 1019.8
20260502100104 2 263 1.6 3.2 0.00 0.00 0.00 61 1019.8
20260502091038 2 182 0.0 1.6 0.00 0.00 0.00 61 1019.7
20260502090535 2 206 1.6 1.6 0.00 0.00 0.00 60 1019.5
20260502071429 3 279 1.6 1.6 0.00 0.00 0.00 57 1019.7
20260502070927 3 285 1.6 1.6 0.00 0.00 0.00 57 1019.8
20260502070425 3 276 1.6 1.6 0.00 0.00 0.00 57 1019.7
20260502065923 3 278 1.6 1.6 0.00 0.00 0.00 56 1019.7
20260502065422 3 275 1.6 1.6 0.00 0.00 0.00 56 1019.7
20260502064919 3 283 1.6 1.6 0.00 0.00 0.00 55 1019.8
20260502064417 3 277 1.6 1.6 0.00 0.00 0.00 55 1020.0
20260502063914 3 280 1.6 1.6 0.00 0.00 0.00 56 1020.0
20260502063411 4 273 1.6 1.6 0.00 0.00 0.00 56 1020.1
20260502062909 4 280 1.6 1.6 0.00 0.00 0.00 55 1020.1
20260502062406 5 294 1.6 1.6 0.00 0.00 0.00 53 1020.0
20260502061905 5 352 1.6 1.6 0.00 0.00 0.00 52 1019.8
20260502061402 5 300 1.6 1.6 0.00 0.00 0.00 52 1020.0
20260502060858 5 322 1.6 1.6 0.00 0.00 0.00 51 1020.0
20260502060353 5 344 0.0 1.6 0.00 0.00 0.00 51 1019.9
20260502055851 5 349 1.6 3.2 0.00 0.00 0.00 51 1019.9
20260502055348 5 47 0.0 1.6 0.00 0.00 0.00 52 1019.9
20260502054848 5 31 0.0 1.6 0.00 0.00 0.00 53 1019.6
20260502054345 5 341 1.6 1.6 0.00 0.00 0.00 53 1019.8
20260502053842 5 312 1.6 1.6 0.00 0.00 0.00 53 1019.8
20260502053339 5 304 1.6 1.6 0.00 0.00 0.00 54 1019.9
20260502052837 4 66 0.0 0.0 0.00 0.00 0.00 54 1020.0
20260502052335 4 38 0.0 0.0 0.00 0.00 0.00 55 1019.7
20260502051832 4 331 0.0 0.0 0.00 0.00 0.00 54 1019.6
20260502051331 5 270 1.6 1.6 0.00 0.00 0.00 53 1019.6
20260502050827 5 270 3.2 3.2 0.00 0.00 0.00 51 1019.6
20260502050323 5 36 0.0 0.0 0.00 0.00 0.00 50 1019.6
20260502045821 5 50 0.0 1.6 0.00 0.00 0.00 50 1019.7
20260502045317 5 336 1.6 1.6 0.00 0.00 0.00 50 1019.5
20260502044815 5 16 1.6 1.6 0.00 0.00 0.00 50 1019.5
20260502044310 5 339 1.6 1.6 0.00 0.00 0.00 50 1019.5
20260502043808 5 352 1.6 1.6 0.00 0.00 0.00 51 1019.5
20260502043305 5 26 1.6 1.6 0.00 0.00 0.00 52 1019.6
20260502042805 5 261 1.6 1.6 0.00 0.00 0.00 51 1019.5
20260502042305 5 340 0.0 1.6 0.00 0.00 0.00 52 1019.6
20260502041800 5 300 1.6 1.6 0.00 0.00 0.00 54 1019.5
20260502041257 5 356 0.0 1.6 0.00 0.00 0.00 53 1019.6
20260502040754 5 57 0.0 0.0 0.00 0.00 0.00 52 1019.6
20260502040250 5 356 1.6 3.2 0.00 0.00 0.00 53 1019.6
20260502035746 5 59 0.0 0.0 0.00 0.00 0.00 53 1019.5
20260502035243 6 39 0.0 0.0 0.00 0.00 0.00 52 1019.5
20260502034741 6 299 1.6 1.6 0.00 0.00 0.00 51 1019.4
20260502034239 6 24 1.6 1.6 0.00 0.00 0.00 49 1019.4
20260502033737 6 56 1.6 1.6 0.00 0.00 0.00 48 1019.5
20260502033235 6 81 1.6 1.6 0.00 0.00 0.00 47 1019.5
20260502032731 7 12 1.6 3.2 0.00 0.00 0.00 47 1019.6
20260502032227 6 3 3.2 4.8 0.00 0.00 0.00 47 1019.4
20260502031725 6 80 0.0 1.6 0.00 0.00 0.00 48 1019.5
20260502031223 6 36 1.6 3.2 0.00 0.00 0.00 48 1019.3
20260502030722 6 97 0.0 1.6 0.00 0.00 0.00 48 1019.5
20260502030219 7 72 1.6 1.6 0.00 0.00 0.00 47 1019.5
20260502025715 7 46 1.6 1.6 0.00 0.00 0.00 47 1019.3
20260502025214 7 352 1.6 1.6 0.00 0.00 0.00 47 1019.5
20260502024711 7 2 3.2 3.2 0.00 0.00 0.00 47 1019.3
20260502024209 7 334 1.6 1.6 0.00 0.00 0.00 46 1019.4
20260502023707 7 76 1.6 1.6 0.00 0.00 0.00 45 1019.4
20260502023204 7 320 3.2 3.2 0.00 0.00 0.00 45 1019.4
20260502022701 7 323 3.2 3.2 0.00 0.00 0.00 44 1019.1
20260502022157 7 359 3.2 4.8 0.00 0.00 0.00 44 1019.2
20260502021655 8 358 0.0 1.6 0.00 0.00 0.00 44 1019.2
20260502021152 8 32 1.6 1.6 0.00 0.00 0.00 44 1019.2
20260502020649 8 78 0.0 0.0 0.00 0.00 0.00 43 1019.1
20260502020146 8 15 3.2 3.2 0.00 0.00 0.00 43 1018.9
20260502015644 8 104 1.6 3.2 0.00 0.00 0.00 42 1018.9
20260502015140 8 28 1.6 3.2 0.00 0.00 0.00 42 1019.0
20260502014638 8 71 0.0 0.0 0.00 0.00 0.00 42 1018.8
20260502014135 8 101 0.0 1.6 0.00 0.00 0.00 41 1018.7
20260502013631 8 76 0.0 1.6 0.00 0.00 0.00 41 1018.6
20260502013126 8 19 1.6 3.2 0.00 0.00 0.00 40 1018.6
20260502012624 8 83 0.0 1.6 0.00 0.00 0.00 40 1018.4
20260502012122 9 90 0.0 1.6 0.00 0.00 0.00 39 1018.4
20260502011618 9 82 1.6 3.2 0.00 0.00 0.00 39 1018.1
20260502011114 9 140 1.6 1.6 0.00 0.00 0.00 39 1018.3
20260502010612 10 358 3.2 3.2 0.00 0.00 0.00 39 1018.5
20260502010108 10 309 8.0 9.7 0.00 0.00 0.00 39 1018.4
20260502005606 10 63 1.6 1.6 0.00 0.00 0.00 39 1018.3
20260502005103 10 358 1.6 1.6 0.00 0.00 0.00 38 1018.3
20260502004559 10 254 3.2 3.2 0.00 0.00 0.00 38 1018.1
20260502004056 10 290 1.6 1.6 0.00 0.00 0.00 38 1018.0
20260502003554 10 35 3.2 3.2 0.00 0.00 0.00 38 1018.0
20260502003050 10 46 8.0 11.3 0.00 0.00 0.00 37 1018.0
20260502002547 10 329 6.4 6.4 0.00 0.00 0.00 37 1018.0
20260502002044 10 22 3.2 4.8 0.00 0.00 0.00 36 1018.0
20260502001542 10 354 1.6 3.2 0.00 0.00 0.00 35 1017.9
20260502001039 10 14 3.2 4.8 0.00 0.00 0.00 36 1017.9
20260502000537 11 352 3.2 3.2 0.00 0.00 0.00 35 1017.8
20260502000034 10 322 8.0 9.7 0.00 0.00 0.00 36 1017.8
20260501235530 10 352 3.2 3.2 0.00 0.00 0.00 37 1017.7
20260501235025 10 325 4.8 9.7 0.00 0.00 0.00 37 1017.7
20260501234521 10 239 1.6 3.2 0.00 0.00 0.00 36 1017.8
20260501234020 10 328 8.0 9.7 0.00 0.00 0.00 35 1017.9
20260501233518 10 305 4.8 6.4 0.00 0.00 0.00 35 1017.7
20260501233014 10 23 3.2 4.8 0.00 0.00 0.00 35 1017.7
20260501232510 11 334 9.7 12.9 0.00 0.00 0.00 34 1017.8
20260501232008 11 123 1.6 1.6 0.00 0.00 0.00 35 1017.9
20260501231506 11 222 1.6 3.2 0.00 0.00 0.00 35 1017.8
20260501231004 11 17 6.4 9.7 0.00 0.00 0.00 34 1017.8
20260501230502 11 66 3.2 6.4 0.00 0.00 0.00 34 1017.6
20260501225959 11 54 4.8 6.4 0.00 0.00 0.00 34 1017.7
20260501225457 11 63 3.2 3.2 0.00 0.00 0.00 35 1017.7
20260501224952 11 29 4.8 4.8 0.00 0.00 0.00 34 1017.7
20260501224450 11 359 3.2 3.2 0.00 0.00 0.00 35 1017.6
20260501223947 11 205 3.2 3.2 0.00 0.00 0.00 35 1017.7
20260501223443 11 49 8.0 11.3 0.00 0.00 0.00 34 1017.7
20260501222939 11 72 3.2 4.8 0.00 0.00 0.00 34 1017.7
20260501222436 11 156 3.2 4.8 0.00 0.00 0.00 34 1017.7
20260501221932 12 350 12.9 17.7 0.00 0.00 0.00 33 1017.7
20260501221430 12 318 4.8 9.7 0.00 0.00 0.00 33 1017.7
20260501220928 12 293 9.7 12.9 0.00 0.00 0.00 33 1017.6
20260501220425 12 11 6.4 6.4 0.00 0.00 0.00 31 1017.5
20260501215921 12 350 4.8 6.4 0.00 0.00 0.00 32 1017.6
20260501215418 11 79 3.2 4.8 0.00 0.00 0.00 32 1017.6
20260501214913 11 321 9.7 14.5 0.00 0.00 0.00 34 1017.5
20260501214408 11 51 11.3 16.1 0.00 0.00 0.00 33 1017.4
20260501213904 11 324 4.8 4.8 0.00 0.00 0.00 33 1017.8
20260501213401 11 4 3.2 4.8 0.00 0.00 0.00 34 1017.6
20260501212857 11 23 6.4 9.7 0.00 0.00 0.00 34 1017.7
20260501212354 11 16 6.4 6.4 0.00 0.00 0.00 34 1017.5
20260501211851 11 264 6.4 9.7 0.00 0.00 0.00 34 1017.8
20260501211348 11 38 3.2 4.8 0.00 0.00 0.00 33 1017.7
20260501210846 11 319 12.9 16.1 0.00 0.00 0.00 33 1017.5
20260501210342 11 331 11.3 17.7 0.00 0.00 0.00 34 1017.6
20260501205839 11 244 6.4 9.7 0.00 0.00 0.00 33 1017.7
20260501205336 11 48 6.4 9.7 0.00 0.00 0.00 34 1017.7
20260501204832 11 63 9.7 12.9 0.00 0.00 0.00 34 1017.7
20260501204329 12 320 6.4 6.4 0.00 0.00 0.00 33 1017.8
20260501203825 11 12 8.0 11.3 0.00 0.00 0.00 34 1017.8
20260501203323 11 328 8.0 12.9 0.00 0.00 0.00 34 1017.8
20260501202814 11 353 3.2 4.8 0.00 0.00 0.00 35 1017.7
20260501202311 11 66 6.4 6.4 0.00 0.00 0.00 34 1017.8
20260501201808 11 118 3.2 4.8 0.00 0.00 0.00 34 1017.7
20260501201305 11 217 8.0 11.3 0.00 0.00 0.00 35 1017.9
20260501200801 11 49 6.4 9.7 0.00 0.00 0.00 33 1017.8